Imperial, NE

2:51 AM MDT on March 23, 2017 (GMT -0600)
Imperial Municipal

Weather History for KIML - February, 2013

Change the Weather History Date:

Friday, February 15, 2013

  Actual Average Record
Temperature  
Mean Temperature 26 °F 31 °F  
Max Temperature 36 °F 44 °F 73 °F (1999)
Min Temperature 16 °F 19 °F -13 °F (1909)
Degree Days  
Heating Degree Days 39 34  
Month to date heating degree days 443 524  
Cooling Degree Days 0 0  
Month to date cooling degree days 0 0  
Year to date cooling degree days 0 0  
Moisture  
Dew Point 15 °F    
Average Humidity 65    
Maximum Humidity 92    
Minimum Humidity 38    
Precipitation  
Precipitation 0.00 in 0.01 in 0.60 in (1900)
Sea Level Pressure  
Sea Level Pressure 30.41 in    
Wind  
Wind Speed 9 mph (WNW)    
Max Wind Speed 21 mph    
Max Gust Speed 25 mph    
Visibility 10 miles    
Events      
T = Trace of Precipitation, MM = Missing Value Source: NWS Daily Summary

Daily Weather History Graph

Daily Weather History Graph

Search for Another Location

Airport or City:

Trip Planner

Search our weather history database for the weather conditions in past years. The results will help you decide how hot, cold, wet, or windy it might be!

Date:

Astronomy

Feb. 15, 2013 Rise Set
Actual Time 6:39 AM MST 5:22 PM MST
Civil Twilight 6:11 AM MST 5:50 PM MST
Nautical Twilight 5:39 AM MST 6:21 PM MST
Astronomical Twilight 5:08 AM MST 6:53 PM MST
Moon 9:15 AM MST (2/15) 11:26 PM MST (2/15)
Length of Visible Light 11h 38m
Length of Day
10h 42m
Waxing Crescent, 31% of the Moon is Illuminated
Feb 15
Waxing Crescent
Feb 17
First Quarter
Feb 25
Full
Mar 4
Last Quarter
Mar 11
New

Hourly Weather History & Observations

Time (MST) Temp. Windchill Dew Point Humidity Pressure Visibility Wind Dir Wind Speed Gust Speed Precip Events Conditions
12:53 AM 18.0 °F 8.7 °F 15.1 °F 88% 30.42 in 10.0 mi West 6.9 mph - N/A   Clear
1:53 AM 18.0 °F 8.7 °F 14.0 °F 84% 30.41 in 10.0 mi WNW 6.9 mph - N/A   Clear
2:53 AM 18.0 °F 8.7 °F 14.0 °F 84% 30.40 in 10.0 mi WNW 6.9 mph - N/A   Clear
3:53 AM 17.1 °F 7.6 °F 12.0 °F 81% 30.41 in 10.0 mi WNW 6.9 mph - N/A   Clear
4:53 AM 17.1 °F 10.0 °F 12.0 °F 81% 30.42 in 10.0 mi WNW 4.6 mph - N/A   Scattered Clouds
5:53 AM 19.0 °F 11.1 °F 14.0 °F 81% 30.42 in 10.0 mi West 5.8 mph - N/A   Overcast
6:53 AM 19.0 °F 11.1 °F 14.0 °F 81% 30.43 in 10.0 mi West 5.8 mph - N/A   Overcast
7:53 AM 21.9 °F 13.4 °F 16.0 °F 78% 30.44 in 10.0 mi West 6.9 mph - N/A   Overcast
8:53 AM 28.0 °F 18.6 °F 19.0 °F 69% 30.42 in 10.0 mi WNW 10.4 mph - N/A   Mostly Cloudy
9:53 AM 30.9 °F 21.7 °F 14.0 °F 50% 30.41 in 10.0 mi NW 11.5 mph - N/A   Clear
10:53 AM 35.1 °F 26.9 °F 12.0 °F 39% 30.39 in 10.0 mi NW 11.5 mph - N/A   Clear
11:53 AM 33.1 °F 21.9 °F 15.1 °F 48% 30.40 in 10.0 mi North 18.4 mph - N/A   Overcast
12:53 PM 32.0 °F 20.8 °F 15.1 °F 50% 30.40 in 10.0 mi North 17.3 mph - N/A   Overcast
1:53 PM 32.0 °F 22.1 °F 15.1 °F 50% 30.40 in 10.0 mi NNW 13.8 mph 21.9 mph N/A   Overcast
2:53 PM 33.1 °F 22.6 °F 15.1 °F 48% 30.41 in 10.0 mi North 16.1 mph - N/A   Scattered Clouds
3:53 PM 30.0 °F 19.1 °F 15.1 °F 54% 30.44 in 10.0 mi North 15.0 mph - N/A   Mostly Cloudy
4:53 PM 28.9 °F 19.2 °F 15.1 °F 56% 30.44 in 10.0 mi North 11.5 mph - N/A   Clear
5:53 PM 23.0 °F 14.7 °F 12.0 °F 63% 30.45 in 10.0 mi NNW 6.9 mph - N/A   Clear
6:53 PM 21.0 °F 14.6 °F 12.9 °F 71% 30.45 in 10.0 mi NW 4.6 mph - N/A   Clear
7:53 PM 21.9 °F 17.2 °F 14.0 °F 72% 30.43 in 10.0 mi WNW 3.5 mph - N/A   Clear
8:53 PM 18.0 °F 9.8 °F 14.0 °F 84% 30.43 in 10.0 mi WSW 5.8 mph - N/A   Scattered Clouds
9:53 PM 21.0 °F 12.4 °F 16.0 °F 81% 30.40 in 10.0 mi WSW 6.9 mph - N/A   Overcast
10:53 PM 23.0 °F 15.8 °F 18.0 °F 81% 30.37 in 10.0 mi SW 5.8 mph - N/A   Overcast
11:53 PM 23.0 °F 14.7 °F 17.1 °F 78% 30.34 in 10.0 mi SW 6.9 mph - N/A   Overcast